Date String (YYYY-MM-DD hh:mm:ss) UTC,Instrument flags,absolute air pressure of the measurement (hPa),sample flow rate (lpm),inlet stack bypass flow (lpm),air temperature of the measurement (°C),ambient temperature measured by the external sensor (°C),aerosol sample conditioner tube jacket temperature (°C),OPC LED temperature (°C),internal box temperature (°C),relative humidity of the measurement (%),span deviation,mass concentration of particles derived from Lorenz-Mie calculation of OPC scattering (μg/m³),mass concentration of particles derived from Lorenz-Mie calculation of OPC scattering (μg/m³),mass concentration of particles derived from Lorenz-Mie calculation of OPC scattering (μg/m³)
DateTimeUTC,F1_M11,P_M11,Q1_M11,Q2_M11,T1_M11,T2_M11,T3_M11,T4_M11,T5_M11,U1_M11,ZSPAN_M11,X0_M11,X2_M11,X1_M11
2024-05-01 02:00:00,SystemResetWarning,0822.9,5.00,000.00,025.3,024.5,000.0,033.7,027.2,021.4,0000.0,0013.16,0003.28,0001.74
2024-05-01 02:01:00,SystemResetWarning,0822.9,5.01,000.00,025.4,024.6,000.0,033.7,027.3,021.4,0000.0,0012.83,0003.26,0001.72
2024-05-01 02:02:00,SystemResetWarning,0823.0,5.00,000.00,025.4,024.7,000.0,033.7,027.3,021.4,0000.0,0012.85,0003.20,0001.69
2024-05-01 02:03:00,SystemResetWarning,0823.0,4.99,000.00,025.5,024.8,000.0,033.8,027.4,021.4,0000.0,0012.70,0003.17,0001.68
2024-05-01 02:04:00,SystemResetWarning,0823.0,4.99,000.00,025.5,024.9,000.0,033.8,027.4,021.4,0000.0,0011.76,0003.14,0001.67
2024-05-01 02:05:00,SystemResetWarning,0823.1,4.99,000.00,025.5,024.9,000.0,033.8,027.5,021.3,0000.0,0011.75,0003.12,0001.64
2024-05-01 02:06:00,SystemResetWarning,0823.1,5.01,000.00,025.6,025.0,000.0,033.8,027.5,021.3,0000.0,0010.93,0003.12,0001.62
2024-05-01 02:07:00,SystemResetWarning,0823.1,5.01,000.00,025.6,025.0,000.0,033.8,027.5,021.4,0000.0,0010.35,0003.14,0001.61
2024-05-01 02:08:00,SystemResetWarning,0823.1,5.00,000.00,025.7,025.1,000.0,033.9,027.6,021.3,0000.0,0009.56,0003.12,0001.59
2024-05-01 02:09:00,SystemResetWarning,0823.2,4.99,000.00,025.7,025.1,000.0,033.9,027.6,021.3,0000.0,0008.85,0003.13,0001.58
2024-05-01 02:10:00,SystemResetWarning,0823.2,5.00,000.00,025.7,025.2,000.0,033.9,027.6,021.3,0000.0,0009.65,0003.15,0001.58
2024-05-01 02:11:00,SystemResetWarning,0823.3,5.01,000.00,025.8,025.2,000.0,034.0,027.7,021.4,0000.0,0009.52,0003.17,0001.58
2024-05-01 02:12:00,SystemResetWarning,0823.3,5.01,000.00,025.8,025.2,000.0,034.0,027.7,021.4,0000.0,0009.54,0003.16,0001.58
2024-05-01 02:13:00,SystemResetWarning,0823.3,4.99,000.00,025.8,025.2,000.0,034.0,027.7,021.5,0000.0,0009.96,0003.21,0001.58
2024-05-01 02:14:00,SystemResetWarning,0823.3,4.99,000.00,025.8,025.3,000.0,034.1,027.7,021.5,0000.0,0010.18,0003.21,0001.57
2024-05-01 02:15:00,SystemResetWarning,0823.4,4.99,000.00,025.9,025.3,000.0,034.1,027.8,021.5,0000.0,0010.32,0003.19,0001.56
2024-05-01 02:16:00,SystemResetWarning,0823.4,5.00,000.00,025.9,025.1,000.0,034.1,027.6,021.5,0000.0,0010.57,0003.20,0001.55
2024-05-01 02:17:00,SystemResetWarning,0823.3,5.00,000.00,025.6,023.0,000.0,034.2,026.5,021.8,0000.0,0010.18,0003.17,0001.54
2024-05-01 02:18:00,SystemResetWarning,0823.3,5.00,000.00,025.2,022.2,000.0,034.1,025.9,022.3,0000.0,0009.87,0003.14,0001.53
2024-05-01 02:19:00,SystemResetWarning,0823.3,5.02,000.00,025.0,022.4,000.0,034.0,026.0,022.6,0000.0,0010.25,0003.11,0001.53
2024-05-01 02:20:00,SystemResetWarning,0823.4,4.99,000.00,025.0,022.8,000.0,033.9,026.3,022.6,0000.0,0010.30,0003.01,0001.52
2024-05-01 02:21:00,SystemResetWarning,0823.5,5.00,000.00,025.0,023.1,000.0,033.8,026.6,022.6,0000.0,0009.83,0002.95,0001.52
2024-05-01 02:22:00,SystemResetWarning,0823.4,5.00,000.00,025.1,023.4,000.0,033.8,026.7,022.6,0000.0,0010.08,0002.97,0001.52
2024-05-01 02:23:00,SystemResetWarning,0823.4,5.00,000.00,025.1,023.7,000.0,033.7,026.8,022.6,0000.0,0009.82,0002.89,0001.53
2024-05-01 02:24:00,SystemResetWarning,0823.5,5.01,000.00,025.2,023.9,000.0,033.7,026.9,022.6,0000.0,0009.95,0002.86,0001.52
2024-05-01 02:25:00,SystemResetWarning,0823.5,4.99,000.00,025.2,024.1,000.0,033.7,027.0,022.6,0000.0,0010.55,0002.84,0001.51
2024-05-01 02:26:00,SystemResetWarning,0823.4,4.98,000.00,025.2,024.2,000.0,033.7,027.1,022.6,0000.0,0010.96,0002.86,0001.50
2024-05-01 02:27:00,SystemResetWarning,0823.5,5.00,000.00,025.3,024.4,000.0,033.7,027.1,022.6,0000.0,0010.28,0002.87,0001.49
2024-05-01 02:28:00,SystemResetWarning,0823.6,5.01,000.00,025.3,024.5,000.0,033.7,027.2,022.5,0000.0,0010.56,0002.91,0001.50
2024-05-01 02:29:00,SystemResetWarning,0823.6,5.01,000.00,025.3,024.6,000.0,033.7,027.2,022.5,0000.0,0011.06,0003.01,0001.51
2024-05-01 02:30:00,SystemResetWarning,0823.6,5.00,000.00,025.4,024.7,000.0,033.7,027.3,022.5,0000.0,0010.87,0003.10,0001.52
2024-05-01 02:31:00,SystemResetWarning,0823.7,4.99,000.00,025.4,024.7,000.0,033.7,027.3,022.6,0000.0,0010.73,0003.18,0001.54
2024-05-01 02:32:00,SystemResetWarning,0823.7,4.99,000.00,025.5,024.8,000.0,033.8,027.4,022.5,0000.0,0010.87,0003.20,0001.53
2024-05-01 02:33:00,SystemResetWarning,0823.7,5.01,000.00,025.5,024.8,000.0,033.8,027.4,022.3,0000.0,0010.84,0003.16,0001.53
2024-05-01 02:34:00,SystemResetWarning,0823.8,5.00,000.00,025.5,024.9,000.0,033.8,027.4,022.3,0000.0,0011.43,0003.21,0001.52
2024-05-01 02:35:00,SystemResetWarning,0823.8,4.99,000.00,025.6,024.9,000.0,033.8,027.5,022.3,0000.0,0011.83,0003.25,0001.55
2024-05-01 02:36:00,SystemResetWarning,0823.8,4.99,000.00,025.6,025.0,000.0,033.9,027.5,022.3,0000.0,0011.15,0003.24,0001.56
2024-05-01 02:37:00,SystemResetWarning,0823.8,5.00,000.00,025.6,025.0,000.0,033.9,027.5,022.3,0000.0,0010.26,0003.23,0001.58
2024-05-01 02:38:00,SystemResetWarning,0823.8,5.01,000.00,025.7,025.1,000.0,033.9,027.6,022.3,0000.0,0010.34,0003.22,0001.59
2024-05-01 02:39:00,SystemResetWarning,0823.8,5.00,000.00,025.7,025.1,000.0,033.9,027.6,022.3,0000.0,0010.79,0003.23,0001.60
2024-05-01 02:40:00,SystemResetWarning,0823.9,5.01,000.00,025.7,025.1,000.0,034.0,027.6,022.3,0000.0,0010.27,0003.18,0001.59
2024-05-01 02:41:00,SystemResetWarning,0823.9,5.00,000.00,025.7,025.1,000.0,034.0,027.6,022.2,0000.0,0010.12,0003.11,0001.58
2024-05-01 02:42:00,SystemResetWarning,0823.9,4.99,000.00,025.8,025.1,000.0,034.0,027.6,022.2,0000.0,0010.13,0003.06,0001.56
2024-05-01 02:43:00,SystemResetWarning,0824.0,4.99,000.00,025.8,025.2,000.0,034.0,027.6,022.0,0000.0,0009.35,0003.06,0001.58
2024-05-01 02:44:00,SystemResetWarning,0823.9,5.00,000.00,025.8,025.2,000.0,034.1,027.7,021.9,0000.0,0008.86,0003.06,0001.58
2024-05-01 02:45:00,SystemResetWarning,0824.0,5.00,000.00,025.8,025.2,000.0,034.1,027.7,021.9,0000.0,0008.62,0003.03,0001.59
2024-05-01 02:46:00,SystemResetWarning,0823.9,5.01,000.00,025.8,025.2,000.0,034.1,027.7,021.8,0000.0,0008.49,0002.95,0001.58
2024-05-01 02:47:00,SystemResetWarning,0824.0,5.00,000.00,025.9,025.2,000.0,034.1,027.7,021.7,0000.0,0008.64,0002.98,0001.57
2024-05-01 02:48:00,SystemResetWarning,0824.0,4.98,000.00,025.9,025.2,000.0,034.1,027.7,021.7,0000.0,0008.77,0003.03,0001.58
2024-05-01 02:49:00,SystemResetWarning,0824.0,5.01,000.00,025.9,025.3,000.0,034.2,027.7,021.8,0000.0,0009.72,0003.03,0001.59
2024-05-01 02:50:00,SystemResetWarning,0824.0,5.00,000.00,025.9,025.3,000.0,034.2,027.8,021.8,0000.0,0010.32,0003.01,0001.58
2024-05-01 02:51:00,SystemResetWarning,0824.2,5.00,000.00,025.9,025.3,000.0,034.2,027.8,021.8,0000.0,0010.45,0003.05,0001.59
2024-05-01 02:52:00,SystemResetWarning,0824.1,5.00,000.00,026.0,025.3,000.0,034.2,027.8,021.8,0000.0,0010.45,0003.07,0001.60
2024-05-01 02:53:00,SystemResetWarning,0824.2,5.00,000.00,026.0,025.3,000.0,034.3,027.8,021.6,0000.0,0010.30,0003.03,0001.62
2024-05-01 02:54:00,SystemResetWarning,0824.2,4.99,000.00,025.8,023.8,000.0,034.3,026.9,021.8,0000.0,0010.22,0002.97,0001.62
2024-05-01 02:55:00,SystemResetWarning,0824.1,5.02,000.00,025.4,022.3,000.0,034.3,026.1,022.3,0000.0,0010.97,0002.99,0001.61
2024-05-01 02:56:00,SystemResetWarning,0824.2,5.00,000.00,025.1,022.3,000.0,034.2,025.9,022.7,0000.0,0010.94,0002.98,0001.62
2024-05-01 02:57:00,SystemResetWarning,0824.3,4.98,000.00,025.0,022.6,000.0,034.0,026.2,022.8,0000.0,0010.59,0002.97,0001.63
2024-05-01 02:58:00,SystemResetWarning,0824.3,5.01,000.00,025.1,022.9,000.0,033.9,026.5,022.9,0000.0,0010.62,0002.92,0001.64
2024-05-01 02:59:00,SystemResetWarning,0824.4,5.00,000.00,025.1,023.3,000.0,033.9,026.7,022.9,0000.0,0011.11,0002.90,0001.64
